Location: Newark
(35.6799°N, 139.7636°E)
Time: 15:32:54
(UTC+00:00)

Explorer 11/Cluster Stage 4 - Pass Details

Date: 19 December 2019
Orbit: 467 x 1259 km, 28.8° (Epoch: 22 January)

Event Time Altitude Azimuth Distance (km) Brightness Sun altitude
Exits shadow 19:01:17 12° 194° (SSW) 2,944 9.4 -32.5°
Maximum altitude 19:06:16 21° 151° (SSE) 2,428 9.3 -31.5°
Drops below altitude 10° 19:12:04 10° 107° (ESE) 3,230 10.6 -30.3°
Sets 19:15:48 0° 92° (E) 4,191 11.5 -29.6°
